Location: Berlise
(49.6641°N, 4.1077°E)
Time: 02:23:09
(UTC+00:00)

CZ-2C R/B - Pass Details

Date: 27 January 2021
Orbit: 785 x 870 km, 98.2° (Epoch: 28 February)

Event Time Altitude Azimuth Distance (km) Brightness Sun altitude
Rises 06:35:20 0° 185° (S) 3,294 6.0 -7.8°
Reaches altitude 10° 06:37:45 10° 192° (SSW) 2,379 5.2 -7.5°
Maximum altitude 06:42:44 43° 263° (W) 1,144 3.0 -6.7°
Drops below altitude 10° 06:47:53 10° 334° (NNW) 2,447 4.7 -5.9°
Sets 06:50:24 0° 341° (NNW) 3,400 5.5 -5.6°
